K3FAZ Weather Reports


time (UTC)temp
C
wind
direction
speed
KPH
gust
KPH
rain 1hr
cm
rain 24hr
cm
rain mn
cm
humidity
%
barometer
mb
20260504030254 4 3 0.0 0.0 0.00 0.00 0.00 86 1016.4
20260504025750 4 3 0.0 0.0 0.00 0.00 0.00 85 1016.3
20260504025247 4 10 0.0 0.0 0.00 0.00 0.00 85 1016.3
20260504024744 4 10 0.0 0.0 0.00 0.00 0.00 85 1016.3
20260504024241 4 10 0.0 0.0 0.00 0.00 0.00 85 1016.4
20260504023738 5 10 0.0 0.0 0.00 0.00 0.00 84 1016.5
20260504023234 5 10 0.0 0.0 0.00 0.00 0.00 83 1016.6
20260504022730 5 10 0.0 0.0 0.00 0.00 0.00 82 1016.4
20260504022226 5 11 0.0 0.0 0.00 0.00 0.00 82 1016.6
20260504021724 5 10 0.0 0.0 0.00 0.00 0.00 82 1016.4
20260504021221 5 10 0.0 0.0 0.00 0.00 0.00 81 1016.5
20260504020717 5 10 0.0 0.0 0.00 0.00 0.00 78 1016.4
20260504020214 6 10 0.0 0.0 0.00 0.00 0.00 76 1016.3
20260504015710 6 11 0.0 0.0 0.00 0.00 0.00 74 1016.5
20260504015206 6 5 0.0 0.0 0.00 0.00 0.00 71 1016.5
20260504014702 6 3 0.0 0.0 0.00 0.00 0.00 70 1016.5
20260504014159 6 3 0.0 0.0 0.00 0.00 0.00 69 1016.3
20260504013657 7 3 0.0 0.0 0.00 0.00 0.00 68 1016.3
20260504013154 7 3 0.0 0.0 0.00 0.00 0.00 67 1016.3
20260504012651 7 1 0.0 0.0 0.00 0.00 0.00 69 1016.2
20260504012149 7 0 0.0 0.0 0.00 0.00 0.00 67 1016.1
20260504011646 7 0 0.0 0.0 0.00 0.00 0.00 65 1016.2
20260504011142 8 0 0.0 0.0 0.00 0.00 0.00 61 1016.3
20260504010638 8 0 0.0 0.0 0.00 0.00 0.00 60 1016.2
20260504010134 9 0 0.0 0.0 0.00 0.00 0.00 58 1016.2
20260504005631 10 354 0.0 0.0 0.00 0.00 0.00 58 1016.2
20260504005128 10 333 0.0 0.0 0.00 0.00 0.00 55 1016.3
20260504004626 10 351 0.0 0.0 0.00 0.00 0.00 52 1016.2
20260504004123 11 192 1.6 3.2 0.00 0.00 0.00 49 1016.1
20260504003619 11 168 3.2 3.2 0.00 0.00 0.00 49 1015.8
20260504003115 11 206 1.6 1.6 0.00 0.00 0.00 49 1016.1
20260504002613 11 210 1.6 3.2 0.00 0.00 0.00 48 1016.1
20260504002110 11 293 0.0 0.0 0.00 0.00 0.00 49 1016.2
20260504001608 11 340 0.0 0.0 0.00 0.00 0.00 49 1016.1
20260504001103 11 182 0.0 0.0 0.00 0.00 0.00 46 1016.1
20260504000601 12 206 1.6 3.2 0.00 0.00 0.00 46 1016.1
20260504000058 12 216 3.2 3.2 0.00 0.00 0.00 45 1015.8
20260503235556 12 194 3.2 3.2 0.00 0.00 0.00 45 1016.0
20260503235053 12 184 9.7 12.9 0.00 0.00 0.00 42 1016.1
20260503234551 12 190 8.0 9.7 0.00 0.00 0.00 42 1016.0
20260503234049 12 205 4.8 4.8 0.00 0.00 0.00 42 1015.9
20260503233545 13 191 3.2 3.2 0.00 0.00 0.00 43 1015.9
20260503233041 13 283 1.6 1.6 0.00 0.00 0.00 42 1016.0
20260503232538 13 184 4.8 4.8 0.00 0.00 0.00 40 1015.9
20260503232036 13 192 4.8 4.8 0.00 0.00 0.00 40 1016.1
20260503231533 13 208 11.3 14.5 0.00 0.00 0.00 40 1015.8
20260503231030 13 182 9.7 11.3 0.00 0.00 0.00 41 1016.0
20260503230526 13 224 11.3 14.5 0.00 0.00 0.00 39 1015.9
20260503230024 13 199 6.4 6.4 0.00 0.00 0.00 41 1015.9
20260503225521 13 180 6.4 6.4 0.00 0.00 0.00 40 1015.9
20260503225016 13 214 4.8 4.8 0.00 0.00 0.00 39 1016.2
20260503224514 13 198 6.4 6.4 0.00 0.00 0.00 39 1016.0
20260503224011 13 201 4.8 4.8 0.00 0.00 0.00 41 1016.1
20260503223509 13 173 6.4 9.7 0.00 0.00 0.00 40 1016.1
20260503223004 13 183 9.7 12.9 0.00 0.00 0.00 39 1016.1
20260503222503 13 179 6.4 9.7 0.00 0.00 0.00 42 1016.0
20260503222000 13 228 4.8 6.4 0.00 0.00 0.00 40 1016.2
20260503221459 14 188 6.4 6.4 0.00 0.00 0.00 39 1016.1
20260503220955 13 177 8.0 9.7 0.00 0.00 0.00 38 1016.0
20260503220451 13 241 4.8 4.8 0.00 0.00 0.00 40 1016.3
20260503215949 14 231 9.7 11.3 0.00 0.00 0.00 36 1016.1
20260503215445 15 184 16.1 17.7 0.00 0.00 0.00 37 1015.9
20260503214943 15 325 1.6 3.2 0.00 0.00 0.00 36 1016.0
20260503214441 15 203 11.3 12.9 0.00 0.00 0.00 38 1016.0
20260503213937 15 189 8.0 9.7 0.00 0.00 0.00 39 1016.0
20260503213436 13 189 9.7 11.3 0.00 0.00 0.00 38 1015.9
20260503212932 14 263 3.2 4.8 0.00 0.00 0.00 37 1016.1
20260503212430 15 9 3.2 4.8 0.00 0.00 0.00 35 1016.1
20260503211927 13 214 1.6 3.2 0.00 0.00 0.00 38 1016.0
20260503211424 13 88 3.2 4.8 0.00 0.00 0.00 36 1016.2
20260503210919 14 218 8.0 12.9 0.00 0.00 0.00 38 1016.2
20260503210416 15 201 3.2 4.8 0.00 0.00 0.00 34 1016.1
20260503205916 14 179 6.4 6.4 0.00 0.00 0.00 37 1016.1
20260503205414 14 226 4.8 6.4 0.00 0.00 0.00 39 1016.2
20260503204910 14 193 6.4 9.7 0.00 0.00 0.00 39 1016.4
20260503204408 15 328 3.2 4.8 0.00 0.00 0.00 35 1016.4
20260503203905 15 159 4.8 4.8 0.00 0.00 0.00 37 1016.3
20260503203402 13 299 3.2 4.8 0.00 0.00 0.00 37 1016.6
20260503202858 13 0 0.0 1.6 0.00 0.00 0.00 36 1016.3
20260503202357 14 282 3.2 3.2 0.00 0.00 0.00 36 1016.5
20260503201855 15 82 4.8 6.4 0.00 0.00 0.00 39 1016.5
20260503201351 13 224 8.0 9.7 0.00 0.00 0.00 39 1016.5
20260503200849 14 305 8.0 11.3 0.00 0.00 0.00 35 1016.5
20260503200344 15 44 1.6 3.2 0.00 0.00 0.00 39 1016.6
20260503195842 13 82 1.6 3.2 0.00 0.00 0.00 37 1016.6
20260503195338 13 177 6.4 6.4 0.00 0.00 0.00 37 1016.6
20260503194836 15 70 3.2 6.4 0.00 0.00 0.00 39 1017.0
20260503194332 14 92 4.8 6.4 0.00 0.00 0.00 36 1017.0
20260503193828 15 197 6.4 9.7 0.00 0.00 0.00 40 1017.0
20260503193324 14 238 11.3 12.9 0.00 0.00 0.00 37 1017.2
20260503192820 14 314 1.6 4.8 0.00 0.00 0.00 38 1017.0
20260503192315 14 160 6.4 9.7 0.00 0.00 0.00 40 1017.2
20260503191812 14 203 6.4 12.9 0.00 0.00 0.00 39 1017.3
20260503191309 14 103 3.2 3.2 0.00 0.00 0.00 41 1017.5
20260503190806 14 154 1.6 3.2 0.00 0.00 0.00 42 1017.5
20260503190303 13 192 11.3 12.9 0.00 0.00 0.00 41 1017.5
20260503185800 13 97 3.2 3.2 0.00 0.00 0.00 42 1017.3
20260503185256 14 225 1.6 4.8 0.00 0.00 0.00 41 1017.5
20260503184755 13 184 8.0 11.3 0.00 0.00 0.00 40 1017.8
20260503184252 14 226 14.5 17.7 0.00 0.00 0.00 39 1017.9
20260503183748 15 228 9.7 12.9 0.00 0.00 0.00 39 1017.6
20260503183246 14 171 4.8 6.4 0.00 0.00 0.00 42 1017.9
20260503182743 13 3 4.8 6.4 0.00 0.00 0.00 41 1018.2
20260503182242 14 214 6.4 6.4 0.00 0.00 0.00 39 1017.9
20260503181739 13 228 9.7 12.9 0.00 0.00 0.00 40 1018.1
20260503181236 13 5 3.2 3.2 0.00 0.00 0.00 42 1018.1
20260503180732 12 324 3.2 4.8 0.00 0.00 0.00 39 1018.3
20260503180230 13 205 8.0 9.7 0.00 0.00 0.00 37 1018.3
20260503175726 13 99 6.4 9.7 0.00 0.00 0.00 38 1018.4
20260503175225 12 195 8.0 9.7 0.00 0.00 0.00 42 1018.4
20260503174720 12 154 4.8 9.7 0.00 0.00 0.00 40 1018.4
20260503174219 13 150 1.6 4.8 0.00 0.00 0.00 39 1018.5
20260503173713 13 160 6.4 6.4 0.00 0.00 0.00 43 1018.5
20260503173210 13 190 4.8 4.8 0.00 0.00 0.00 41 1018.5
20260503172707 13 123 3.2 4.8 0.00 0.00 0.00 40 1018.5
20260503172204 12 276 9.7 12.9 0.00 0.00 0.00 39 1018.6
20260503171700 12 145 8.0 9.7 0.00 0.00 0.00 42 1018.6
20260503171158 12 12 4.8 6.4 0.00 0.00 0.00 37 1018.7
20260503170654 12 25 6.4 11.3 0.00 0.00 0.00 40 1018.6
20260503170151 13 103 1.6 3.2 0.00 0.00 0.00 43 1018.8
20260503160113 11 181 11.3 12.9 0.00 0.00 0.00 40 1019.3
20260503150543 10 184 8.0 11.3 0.00 0.00 0.00 46 1019.6
20260503130932 7 220 4.8 6.4 0.00 0.00 0.00 65 1019.9
20260503130430 6 190 9.7 11.3 0.00 0.00 0.00 67 1019.9
20260503110332 -1 43 0.0 0.0 0.00 0.00 0.00 98 1019.4
20260503100258 -2 1 0.0 0.0 0.00 0.00 0.00 97 1019.0
20260503090224 -1 1 0.0 0.0 0.00 0.00 0.00 95 1018.7
20260503081156 0 1 0.0 0.0 0.00 0.00 0.00 93 1018.7
20260503080652 0 1 0.0 0.0 0.00 0.00 0.00 93 1018.7
20260503080149 0 1 0.0 0.0 0.00 0.00 0.00 92 1018.7
20260503072626 0 11 0.0 0.0 0.00 0.00 0.00 89 1018.4
20260503072123 0 11 0.0 0.0 0.00 0.00 0.00 89 1018.4
20260503071620 0 11 0.0 0.0 0.00 0.00 0.00 88 1018.5
20260503071116 1 11 0.0 0.0 0.00 0.00 0.00 87 1018.5
20260503070614 1 11 0.0 0.0 0.00 0.00 0.00 86 1018.4
20260503070112 1 11 0.0 0.0 0.00 0.00 0.00 85 1018.3
20260503055032 2 24 0.0 0.0 0.00 0.00 0.00 84 1018.5
20260503054528 2 20 0.0 0.0 0.00 0.00 0.00 85 1018.6
20260503054025 2 21 0.0 0.0 0.00 0.00 0.00 87 1018.5
20260503053523 2 24 0.0 0.0 0.00 0.00 0.00 88 1018.7
20260503053021 1 6 0.0 0.0 0.00 0.00 0.00 88 1018.6
20260503052517 1 6 0.0 0.0 0.00 0.00 0.00 88 1018.9
20260503052014 1 6 0.0 0.0 0.00 0.00 0.00 88 1018.8
20260503051509 1 6 0.0 0.0 0.00 0.00 0.00 88 1018.9
20260503051007 1 6 0.0 0.0 0.00 0.00 0.00 89 1018.9
20260503050502 1 14 0.0 0.0 0.00 0.00 0.00 89 1018.7
20260503050000 1 357 0.0 0.0 0.00 0.00 0.00 89 1018.7
20260503045457 1 357 0.0 0.0 0.00 0.00 0.00 89 1019.0
20260503044954 1 12 0.0 0.0 0.00 0.00 0.00 89 1018.8
20260503044451 1 12 0.0 0.0 0.00 0.00 0.00 88 1018.7
20260503043949 1 12 0.0 0.0 0.00 0.00 0.00 88 1019.0
20260503043444 1 12 0.0 0.0 0.00 0.00 0.00 87 1018.8
20260503042941 1 9 0.0 0.0 0.00 0.00 0.00 86 1018.9
20260503042438 2 357 0.0 0.0 0.00 0.00 0.00 85 1019.0
20260503041935 1 357 0.0 0.0 0.00 0.00 0.00 87 1018.8
20260503041431 2 7 0.0 0.0 0.00 0.00 0.00 86 1018.8
20260503040928 2 7 0.0 0.0 0.00 0.00 0.00 85 1018.9
20260503040426 2 7 0.0 0.0 0.00 0.00 0.00 84 1018.9
20260503035923 2 7 0.0 0.0 0.00 0.03 0.03 83 1019.0
20260503035420 2 7 0.0 0.0 0.00 0.03 0.03 81 1019.0
20260503034917 2 4 0.0 0.0 0.00 0.03 0.03 79 1019.0
20260503034415 2 347 0.0 0.0 0.00 0.03 0.03 80 1019.1
20260503033912 2 346 0.0 0.0 0.00 0.03 0.03 79 1018.8
20260503033409 2 1 0.0 0.0 0.00 0.03 0.03 79 1019.0
20260503032907 2 1 0.0 0.0 0.00 0.03 0.03 80 1018.9
20260503032406 2 1 0.0 0.0 0.00 0.03 0.03 80 1018.9
20260503031903 2 1 0.0 0.0 0.00 0.03 0.03 79 1019.0
20260503031401 2 1 0.0 0.0 0.00 0.03 0.03 80 1019.0
20260503030856 2 1 0.0 0.0 0.00 0.03 0.03 80 1018.9